Wind_Speed
139 126 124 123 120 116 111 108 104 98 89 81 76 69 64 60 54 50 45 43 42 37 30 32 33 32 36 41 44 49 56 63 72 82 87 92 90 90 95 93 93 89 91 84 78 69 74 85 86 89 92 94 95 96
130 126 124 121 116 112 109 105 100 89 83 76 67 63 58 54 49 44 38 39 37 30 27 27 27 32 33 37 40 46 51 58 68 79 87 90 90 91 92 94 92 92 96 89 81 71 68 75 80 81 89 95 96 96
126 124 120 115 113 111 111 105 92 85 75 68 63 58 53 49 44 39 34 35 33 25 26 23 28 31 32 35 40 45 50 57 65 74 80 80 85 87 89 92 94 93 92 92 86 80 75 77 83 82 80 88 95 95
125 121 116 113 111 111 105 94 87 77 68 66 61 54 49 44 38 33 30 31 27 21 24 26 28 30 32 35 39 42 47 54 61 67 72 76 78 81 85 91 95 94 94 94 92 87 82 81 83 81 73 72 81 91
123 120 115 113 111 105 95 88 79 70 65 63 54 48 43 39 33 29 27 28 25 20 26 26 28 30 32 35 38 42 46 50 55 60 66 71 73 79 83 91 97 98 97 95 94 92 87 85 84 85 83 74 73 78
119 116 115 112 108 98 88 80 71 63 63 54 47 42 38 34 29 27 26 28 25 24 27 28 28 30 34 37 39 42 45 48 51 54 60 64 69 76 82 88 98 102 100 97 96 97 95 93 92 89 88 84 80 79
115 114 113 109 103 90 82 72 65 62 55 47 42 37 34 28 26 25 24 24 23 24 26 29 31 32 35 38 41 42 44 45 48 51 55 60 68 75 83 89 94 99 101 101 101 101 101 99 97 95 93 92 90 88
113 113 110 105 94 85 76 67 60 57 48 42 38 34 30 25 24 22 22 23 23 25 27 32 33 35 38 41 42 43 45 45 46 49 54 59 66 73 80 87 92 96 101 105 106 106 106 105 103 102 99 97 97 95
113 112 107 97 87 79 70 63 56 49 42 38 34 29 26 23 21 21 22 22 23 26 29 33 34 36 39 42 44 44 46 46 47 49 53 58 64 72 79 84 89 93 96 101 105 106 105 106 106 106 106 105 104 102
112 110 102 90 82 72 64 56 50 42 37 33 29 25 22 20 20 21 20 20 22 26 31 34 36 37 40 44 43 43 44 47 48 49 51 56 63 70 78 84 88 92 96 101 104 107 107 108 109 110 110 109 108 108
111 105 93 84 77 66 58 53 43 37 34 30 26 23 19 18 18 17 17 18 21 26 31 34 36 39 42 42 45 46 48 50 51 52 53 55 59 69 80 85 90 92 97 100 103 106 108 109 110 111 111 111 111 112
107 97 85 78 70 61 55 45 37 34 31 27 23 20 17 16 15 15 15 18 22 26 30 33 36 38 42 45 48 50 50 50 51 52 54 57 60 66 73 81 87 91 93 96 101 105 108 110 111 112 114 115 115 116
99 85 78 71 63 57 50 40 35 32 28 25 20 18 15 14 13 12 13 17 22 26 29 32 34 38 40 44 47 48 48 49 52 54 56 57 59 63 69 77 84 87 90 93 95 100 104 108 110 112 114 115 117 118
88 78 72 64 57 51 43 38 34 30 26 23 18 14 12 12 12 11 11 14 20 25 30 32 35 38 41 44 45 44 46 50 54 55 57 57 57 60 65 71 76 82 87 90 92 95 99 101 105 110 113 115 116 118
81 72 67 59 52 46 40 36 33 28 25 21 16 12 9 9 10 10 10 13 15 20 25 29 33 35 39 42 43 43 44 47 48 52 54 54 57 59 62 65 70 75 81 87 90 93 96 99 101 105 108 111 113 115
73 69 63 56 49 44 39 34 30 27 23 19 15 11 8 7 9 9 10 12 13 16 20 24 29 33 35 37 38 39 39 43 47 46 48 50 53 55 57 62 66 70 73 78 84 89 91 94 96 97 100 102 106 108
68 63 58 52 46 42 37 33 28 25 21 18 14 10 7 6 9 11 11 12 14 16 19 22 27 30 30 33 35 36 39 41 44 45 46 48 50 53 55 56 58 61 65 69 73 78 83 87 90 93 95 95 96 96
64 59 54 47 42 38 34 30 27 22 19 16 14 10 7 6 8 11 13 13 15 16 18 21 23 26 29 31 32 34 36 38 40 42 44 46 48 50 51 52 53 54 56 59 62 65 68 70 73 76 79 80 81 83
62 57 51 43 39 37 32 29 24 20 18 15 14 11 8 7 8 12 14 16 17 18 19 20 21 23 25 28 31 33 36 38 40 42 43 41 41 43 44 44 44 43 42 42 43 44 45 47 49 52 56 61 64 67
58 54 49 42 37 35 32 28 23 19 16 14 13 11 9 8 9 11 15 17 19 20 22 24 25 25 26 26 27 28 29 32 33 34 34 32 32 33 34 34 34 34 34 34 35 37 39 42 46 47 48 49 47 47
55 51 45 40 35 31 29 26 22 19 15 13 12 11 10 9 10 11 13 17 20 21 22 23 25 27 28 29 29 30 30 30 30 30 30 30 29 30 31 32 32 31 33 34 34 34 36 40 36 35 37 39 39 39
52 49 44 39 34 30 27 25 21 19 15 13 12 12 11 11 11 12 13 14 17 20 22 23 24 23 24 24 25 26 26 26 25 25 25 26 26 27 27 27 28 28 27 27 30 32 28 27 30 30 30 30 28 27
48 46 42 37 32 28 26 23 20 18 15 13 11 11 11 11 11 12 13 15 15 17 19 21 22 22 23 23 23 23 24 24 24 24 25 25 24 23 23 23 23 24 26 24 21 22 25 24 25 25 24 23 24 24
45 44 41 36 32 28 24 21 18 17 14 12 11 10 10 11 12 12 13 14 15 16 16 18 19 21 21 22 22 22 23 24 23 22 22 21 20 20 21 22 23 21 19 21 23 23 23 23 22 21 20 20 19 17
41 41 39 35 32 27 22 18 17 15 12 11 10 9 9 10 11 12 13 14 14 15 17 19 20 21 21 21 22 22 22 22 21 21 22 21 23 23 22 19 19 20 21 20 19 20 19 18 17 16 14 13 13 13
39 38 37 35 31 24 20 17 15 13 12 10 9 8 7 8 11 11 12 12 13 15 16 16 17 19 21 21 21 20 20 20 21 22 23 22 20 17 17 19 19 18 17 18 17 17 15 14 13 13 13 13 14 14
37 36 36 34 29 19 19 17 14 12 11 10 8 6 6 6 8 11 12 13 12 13 13 15 15 16 16 17 18 19 21 22 21 20 18 17 16 18 17 16 15 16 15 15 14 14 14 14 15 15 16 15 14 13
35 34 34 31 24 20 18 16 13 11 10 9 7 5 5 5 6 7 10 12 14 13 13 14 14 15 17 18 18 17 16 17 17 15 15 16 15 15 14 14 15 15 15 15 16 16 16 17 17 17 16 15 15 15
33 33 32 28 23 20 17 15 14 12 11 9 7 5 4 4 5 6 7 9 11 12 13 14 14 14 14 15 15 16 15 14 14 15 15 14 14 14 15 15 15 15 17 18 18 18 18 19 18 17 17 17 17 17
32 30 30 27 23 18 17 15 13 12 11 10 7 4 3 4 3 4 5 7 8 9 10 11 12 14 15 15 15 14 15 15 15 15 14 13 14 15 15 16 17 18 19 19 19 20 20 19 19 19 19 20 20 20
29 28 28 26 23 18 16 15 13 11 9 7 6 4 3 2 4 4 6 6 7 8 9 10 10 10 10 11 12 12 13 13 13 13 14 15 16 16 17 19 19 20 20 21 21 21 20 21 21 22 22 22 23 20
28 26 26 25 23 18 15 14 13 11 9 8 8 9 7 4 3 4 6 7 8 9 9 10 9 9 9 10 11 11 12 12 12 13 14 15 17 19 20 20 21 21 22 22 22 22 23 23 24 25 25 25 23 22
26 24 24 24 22 18 14 13 12 11 9 10 10 10 9 5 3 3 5 7 8 8 9 9 9 9 10 11 11 12 12 12 12 14 16 17 18 19 20 20 20 22 23 23 23 24 25 25 27 26 27 26 24 24
Wind_Direction
319 317 314 316 315 316 319 321 320 319 317 315 313 309 306 305 304 301 295 288 283 279 271 257 248 241 232 228 225 224 221 218 216 218 218 221 222 219 219 219 217 215 213 214 214 215 220 216 220 225 227 227 229 232
318 316 316 315 317 322 323 323 322 322 319 316 313 308 306 304 304 301 293 284 282 277 263 255 246 237 226 223 220 218 217 215 214 215 216 216 216 217 216 218 218 215 211 213 212 213 215 217 217 221 226 229 231 233
316 316 315 317 323 326 326 325 323 322 318 315 312 309 306 303 302 300 291 281 278 271 260 250 238 231 224 217 215 214 212 213 213 215 217 217 215 214 214 215 217 216 214 213 214 214 215 219 217 217 223 228 231 235
316 316 318 323 326 327 326 325 323 320 316 314 311 307 304 301 300 297 286 277 275 266 249 239 230 224 218 214 214 213 211 212 213 214 216 216 214 213 212 213 215 216 216 213 215 215 217 220 223 219 222 231 235 235
316 318 322 326 328 328 326 324 321 319 316 314 312 308 304 300 298 292 280 273 268 252 239 231 225 218 215 211 212 211 211 213 213 213 214 212 211 210 208 210 212 215 216 215 216 217 218 222 224 226 222 227 235 239
318 321 326 328 328 329 327 324 322 318 318 316 313 310 305 302 299 288 278 267 258 241 229 220 212 213 211 208 210 212 211 212 213 213 212 210 206 206 206 209 211 214 215 216 217 218 219 222 224 226 227 228 230 235
321 325 328 329 329 329 325 324 322 320 318 316 314 312 306 302 293 283 272 264 252 236 222 214 209 207 209 208 209 209 213 211 211 211 212 210 206 205 205 207 210 213 216 217 218 219 220 222 226 228 230 230 232 234
324 327 329 329 329 327 325 324 322 321 318 317 315 311 305 297 286 275 266 255 247 233 220 212 209 207 208 208 208 208 210 211 211 210 210 209 207 206 208 208 210 213 215 216 218 219 221 223 225 228 231 233 234 236
326 328 330 330 328 327 325 323 323 321 320 320 317 311 304 292 281 269 260 255 246 231 215 210 210 210 208 207 208 208 207 210 210 210 211 210 208 208 209 210 214 216 217 218 220 222 224 225 227 229 232 234 236 238
328 330 330 329 328 327 325 324 324 322 323 321 318 309 300 289 278 265 258 247 234 221 209 205 205 210 207 207 207 207 205 209 212 213 212 213 210 210 211 213 215 217 218 219 220 223 225 227 229 231 233 235 238 239
329 330 329 328 328 328 325 325 326 326 324 322 319 309 297 286 275 263 251 237 223 214 208 203 203 203 205 203 203 205 207 210 212 214 213 214 214 215 213 213 216 218 220 221 222 224 227 230 232 234 236 238 240 242
330 329 328 329 328 329 327 328 330 329 328 325 320 310 296 284 272 257 246 232 218 211 207 204 203 201 202 203 203 207 208 211 214 217 217 217 217 216 217 218 220 221 223 225 226 226 228 231 234 236 238 240 242 244
329 328 328 330 329 330 331 334 332 332 331 327 320 313 301 286 267 253 243 228 215 209 206 206 206 205 205 207 209 211 210 212 214 217 221 222 221 222 222 222 223 224 226 227 230 232 232 234 236 239 241 243 244 246
328 328 329 331 330 332 333 335 333 334 333 328 320 315 305 289 268 252 233 217 209 208 205 206 208 208 207 208 211 213 214 215 217 220 223 226 225 226 227 227 228 229 229 231 233 234 236 238 240 241 243 246 248 250
326 329 331 331 330 333 336 338 337 337 334 328 322 315 304 283 265 247 223 214 209 207 206 206 207 209 208 210 212 214 214 221 223 223 228 230 232 232 233 233 234 234 234 234 236 237 238 240 242 244 245 248 250 253
327 330 332 332 331 334 337 338 336 337 333 325 319 312 302 274 254 239 219 209 208 204 205 206 207 208 211 214 217 220 219 219 227 230 229 232 235 237 236 236 239 240 240 240 240 241 243 244 246 247 249 251 253 255
329 330 332 333 333 334 339 339 337 335 330 323 316 310 296 269 240 229 216 207 204 205 208 208 209 211 214 213 215 219 222 224 228 233 235 235 236 237 239 241 242 243 244 245 246 247 248 250 251 253 254 256 258 261
330 331 332 332 333 335 339 339 337 334 328 320 312 305 288 265 239 223 213 203 206 205 206 212 213 213 218 220 221 224 227 231 236 240 241 241 241 243 245 246 248 249 249 250 252 254 256 257 259 261 263 266 268 270
330 331 333 334 335 337 339 339 336 332 327 318 308 300 278 253 241 223 215 207 203 208 209 212 218 220 220 223 224 225 228 232 237 242 246 249 250 252 255 258 259 261 263 264 263 263 263 263 263 262 259 258 257 259
330 332 335 336 336 336 335 337 335 332 328 315 302 295 279 249 236 227 218 216 211 208 212 215 217 222 226 228 232 236 238 241 244 246 249 250 251 253 256 259 260 260 260 259 257 255 253 253 254 255 257 260 265 265
331 333 336 337 336 335 335 336 334 332 326 313 299 285 274 261 236 229 221 216 216 217 215 217 220 221 221 224 228 232 235 236 238 241 245 248 250 251 253 255 257 259 256 254 255 259 260 258 262 266 263 260 261 263
332 334 335 339 340 335 335 334 331 329 325 314 297 283 267 257 245 230 227 223 217 217 218 218 220 224 228 229 231 233 236 239 243 246 247 248 249 249 249 251 253 257 260 260 255 253 260 263 258 260 262 262 264 266
331 333 333 336 342 336 333 332 329 328 324 316 300 278 265 255 243 235 229 229 228 222 218 218 220 221 223 226 229 232 235 238 240 241 242 245 249 253 255 258 258 256 255 259 265 260 256 259 260 258 260 261 261 261
331 332 335 336 340 337 333 331 325 325 326 317 301 281 260 253 249 239 232 225 224 227 229 227 224 224 226 228 230 231 233 235 238 241 244 245 246 246 247 247 250 254 254 248 247 250 251 250 251 250 249 248 248 248
330 332 335 337 340 335 331 332 327 326 321 319 304 287 267 252 243 238 233 233 229 224 222 223 223 226 228 230 232 234 237 238 240 241 242 243 241 241 242 244 243 242 242 242 242 242 244 243 239 237 236 235 230 229
330 334 336 339 339 333 330 330 329 327 325 316 306 292 272 251 243 239 237 233 228 225 223 224 228 229 228 230 231 233 234 234 235 235 235 237 240 242 241 239 239 238 235 232 233 231 228 224 220 216 212 208 202 199
332 336 336 339 339 336 333 334 333 331 328 326 311 296 271 255 244 237 236 232 229 226 225 227 230 232 231 230 229 230 232 233 236 241 244 244 239 234 233 231 227 224 224 223 220 216 209 202 198 193 190 185 181 180
335 337 335 338 340 339 335 332 332 335 338 330 323 304 279 259 248 245 234 225 222 222 223 221 220 222 224 227 230 232 232 232 232 230 227 226 226 226 225 224 222 218 213 208 202 196 191 186 182 178 177 176 176 174
336 336 335 338 337 336 337 336 335 338 346 342 322 304 282 266 240 240 237 234 232 228 225 222 220 222 223 225 226 228 229 228 225 225 227 226 224 221 218 213 207 203 198 191 186 183 180 177 176 176 175 175 174 174
335 335 336 338 338 336 340 338 335 342 345 340 331 328 316 284 265 240 240 229 221 215 213 212 215 220 222 224 225 225 225 224 224 225 227 222 215 209 203 198 195 190 186 183 181 179 178 178 178 175 175 176 177 173
336 336 336 338 340 336 339 340 337 341 345 347 353 354 319 268 245 239 216 209 211 205 203 202 205 209 213 213 215 216 215 214 213 212 211 206 203 199 196 192 187 182 182 182 181 180 181 181 179 178 179 179 177 177
335 338 337 338 341 337 336 338 342 343 355 1 2 357 333 283 257 228 213 207 200 203 205 201 204 211 211 209 209 210 209 207 204 200 196 193 193 193 191 186 184 183 185 183 182 184 185 184 182 181 181 181 183 184
336 339 338 337 341 338 333 337 341 344 358 3 354 345 339 312 281 214 200 201 199 192 192 193 197 201 203 203 200 199 200 200 196 193 191 190 189 189 188 188 187 187 187 186 186 188 188 186 184 185 185 187 187 187
Height
10311 10288 10264 10244 10225 10205 10184 10162 10140 10122 10104 10090 10078 10066 10056 10048 10043 10037 10033 10027 10024 10027 10030 10030 10034 10042 10047 10053 10060 10069 10077 10087 10102 10114 10131 10145 10172 10191 10206 10223 10239 10259 10276 10291 10305 10321 10338 10346 10356 10369 10379 10384 10390 10396
10284 10261 10240 10219 10198 10176 10154 10133 10114 10096 10081 10068 10058 10047 10039 10032 10028 10022 10019 10012 10012 10016 10018 10020 10026 10029 10035 10042 10051 10058 10065 10075 10087 10096 10108 10124 10151 10169 10191 10206 10224 10237 10254 10275 10292 10313 10322 10329 10336 10345 10353 10363 10373 10377
10258 10236 10216 10194 10171 10149 10127 10107 10089 10076 10062 10051 10042 10032 10024 10017 10013 10009 10005 10001 10002 10007 10006 10012 10016 10019 10026 10034 10041 10047 10056 10065 10076 10086 10099 10119 10137 10155 10174 10193 10210 10227 10246 10264 10278 10293 10305 10311 10316 10324 10333 10342 10353 10361
10234 10213 10192 10169 10148 10127 10106 10087 10072 10058 10046 10035 10025 10017 10009 10003 10000 9997 9994 9991 9993 9998 9999 10004 10008 10013 10020 10027 10033 10041 10049 10057 10067 10080 10092 10108 10128 10145 10164 10182 10198 10215 10229 10248 10261 10272 10285 10295 10305 10312 10323 10332 10340 10345
10208 10188 10166 10146 10126 10106 10087 10070 10055 10042 10030 10019 10009 10001 9995 9990 9988 9986 9984 9983 9985 9989 9990 9996 10001 10008 10014 10021 10027 10035 10043 10051 10061 10074 10084 10099 10120 10135 10150 10166 10180 10195 10212 10231 10246 10258 10271 10280 10290 10299 10305 10313 10321 10327
10189 10166 10145 10125 10104 10086 10069 10054 10040 10027 10016 10005 9996 9989 9984 9980 9979 9976 9976 9974 9977 9981 9984 9989 9996 10001 10007 10015 10022 10029 10038 10047 10056 10068 10080 10094 10108 10125 10140 10154 10167 10181 10196 10216 10230 10241 10251 10259 10269 10279 10289 10296 10299 10306
10169 10148 10127 10106 10086 10069 10054 10039 10026 10014 10003 9993 9985 9979 9975 9972 9970 9967 9967 9968 9972 9976 9980 9985 9991 9997 10003 10010 10017 10025 10033 10042 10052 10064 10075 10089 10102 10115 10126 10140 10154 10169 10186 10202 10212 10221 10232 10243 10253 10264 10272 10279 10284 10288
10149 10128 10110 10089 10070 10055 10039 10026 10014 10003 9993 9984 9977 9971 9968 9965 9962 9960 9961 9963 9967 9971 9975 9980 9987 9993 9998 10005 10013 10020 10028 10038 10048 10059 10069 10081 10095 10108 10121 10133 10143 10155 10169 10182 10194 10204 10213 10225 10236 10246 10255 10263 10268 10274
10132 10110 10091 10073 10057 10042 10027 10014 10004 9992 9984 9976 9969 9965 9961 9958 9956 9955 9956 9958 9962 9967 9970 9975 9983 9989 9994 10002 10009 10017 10025 10034 10045 10054 10064 10076 10089 10101 10112 10125 10137 10148 10160 10173 10183 10193 10204 10213 10220 10227 10234 10241 10249 10255
10115 10094 10074 10058 10043 10029 10016 10004 9994 9984 9976 9969 9964 9959 9955 9952 9950 9950 9950 9953 9956 9960 9965 9972 9977 9983 9992 9998 10006 10014 10023 10030 10040 10049 10060 10070 10081 10091 10102 10115 10126 10137 10147 10156 10168 10178 10187 10196 10204 10212 10218 10226 10231 10236
10099 10079 10060 10046 10031 10018 10005 9995 9985 9977 9969 9963 9958 9954 9950 9948 9946 9945 9947 9948 9951 9955 9961 9968 9974 9980 9988 9996 10003 10010 10018 10026 10034 10043 10054 10063 10074 10084 10092 10102 10113 10124 10133 10144 10155 10165 10173 10182 10190 10197 10204 10211 10216 10219
10085 10066 10050 10036 10020 10008 9996 9986 9978 9970 9964 9958 9954 9950 9947 9944 9942 9943 9944 9945 9948 9952 9957 9963 9970 9977 9984 9992 9999 10006 10013 10022 10031 10039 10047 10056 10066 10075 10085 10096 10103 10113 10123 10132 10141 10149 10157 10164 10171 10179 10185 10191 10196 10201
10071 10055 10041 10027 10012 9999 9988 9980 9972 9965 9959 9954 9950 9947 9944 9941 9940 9940 9942 9944 9946 9950 9955 9959 9966 9973 9980 9987 9994 10001 10011 10018 10026 10032 10039 10048 10058 10067 10076 10083 10091 10102 10110 10119 10128 10135 10143 10151 10157 10163 10169 10173 10177 10181
10058 10046 10032 10019 10005 9994 9983 9975 9967 9960 9954 9951 9947 9943 9941 9939 9938 9939 9939 9942 9945 9949 9954 9960 9965 9970 9977 9983 9991 10000 10007 10015 10022 10028 10033 10041 10051 10059 10065 10073 10082 10090 10098 10106 10113 10119 10127 10134 10141 10146 10151 10155 10158 10161
10046 10035 10023 10010 9999 9987 9978 9970 9963 9956 9952 9948 9944 9941 9939 9937 9937 9937 9938 9940 9943 9949 9954 9958 9964 9970 9975 9982 9988 9996 10003 10009 10017 10024 10030 10037 10042 10050 10056 10062 10069 10076 10083 10089 10095 10101 10107 10112 10118 10123 10128 10133 10137 10142
10038 10025 10013 10002 9990 9981 9972 9965 9959 9953 9949 9945 9942 9939 9938 9937 9935 9936 9937 9939 9943 9948 9953 9958 9962 9968 9973 9980 9986 9993 10000 10005 10009 10014 10021 10027 10032 10037 10045 10051 10056 10062 10067 10074 10079 10085 10090 10095 10100 10106 10111 10114 10118 10121
10029 10019 10006 9995 9984 9974 9967 9961 9955 9950 9946 9943 9940 9937 9936 9935 9935 9935 9937 9939 9942 9946 9951 9956 9960 9965 9971 9977 9983 9989 9994 9999 10003 10007 10012 10017 10023 10027 10032 10038 10044 10050 10054 10059 10064 10069 10074 10079 10084 10088 10093 10097 10101 10106
10021 10010 9999 9989 9979 9970 9963 9957 9952 9947 9943 9940 9938 9935 9934 9934 9934 9935 9936 9938 9940 9944 9949 9953 9959 9964 9969 9973 9979 9984 9989 9993 9996 10000 10004 10009 10013 10017 10021 10026 10030 10035 10040 10045 10050 10054 10058 10063 10067 10071 10076 10081 10085 10085
10013 10001 9991 9982 9972 9964 9958 9953 9949 9944 9940 9937 9935 9933 9933 9932 9933 9934 9935 9937 9939 9942 9946 9950 9955 9960 9965 9970 9975 9980 9984 9988 9990 9993 9996 10000 10004 10008 10013 10017 10021 10025 10029 10033 10037 10040 10044 10048 10051 10053 10053 10053 10055 10055
10005 9994 9984 9975 9967 9959 9953 9949 9945 9941 9938 9935 9933 9931 9930 9931 9931 9933 9934 9936 9939 9942 9945 9948 9952 9955 9959 9964 9969 9973 9977 9980 9983 9986 9989 9993 9996 10000 10003 10006 10010 10013 10016 10019 10022 10024 10027 10029 10029 10031 10034 10036 10039 10040
9998 9987 9978 9970 9961 9954 9948 9944 9941 9938 9935 9933 9931 9929 9928 9928 9929 9930 9933 9935 9937 9939 9942 9946 9949 9953 9956 9960 9964 9967 9970 9973 9976 9979 9981 9984 9988 9990 9993 9995 9998 10001 10003 10005 10007 10010 10011 10011 10015 10019 10020 10020 10022 10023
9990 9981 9972 9965 9956 9949 9944 9941 9937 9934 9932 9930 9929 9927 9926 9925 9926 9927 9929 9932 9935 9937 9939 9942 9946 9949 9952 9955 9958 9961 9964 9966 9969 9972 9975 9977 9979 9981 9983 9986 9988 9990 9992 9994 9996 9997 10001 10003 10003 10005 10007 10008 10010 10012
9983 9974 9966 9959 9952 9946 9941 9937 9934 9931 9929 9927 9926 9924 9923 9922 9923 9924 9925 9926 9929 9932 9935 9939 9942 9944 9947 9950 9953 9956 9959 9961 9964 9966 9968 9970 9972 9975 9977 9979 9980 9981 9982 9985 9988 9989 9990 9992 9994 9996 9998 10000 10002 10003
9976 9968 9960 9953 9948 9942 9937 9934 9931 9928 9926 9924 9922 9922 9921 9920 9920 9921 9922 9924 9925 9927 9930 9932 9935 9938 9941 9943 9946 9949 9952 9955 9958 9960 9962 9964 9966 9968 9970 9971 9973 9975 9978 9979 9980 9982 9984 9985 9987 9990 9992 9994 9996 9998
9970 9963 9955 9948 9942 9938 9934 9931 9928 9925 9922 9921 9919 9919 9918 9917 9917 9918 9918 9920 9921 9924 9926 9929 9931 9933 9935 9938 9940 9943 9945 9948 9951 9953 9955 9957 9959 9960 9963 9966 9968 9969 9970 9973 9974 9976 9978 9980 9982 9984 9987 9989 9991 9993
9964 9957 9950 9944 9939 9934 9931 9928 9925 9922 9919 9918 9917 9915 9915 9914 9914 9915 9916 9917 9918 9919 9922 9924 9926 9928 9931 9933 9936 9938 9941 9943 9945 9946 9948 9950 9953 9956 9958 9959 9960 9963 9965 9967 9969 9972 9974 9976 9978 9980 9983 9986 9988 9991
9958 9951 9945 9940 9935 9931 9928 9925 9922 9920 9917 9915 9914 9913 9911 9911 9911 9911 9912 9913 9914 9916 9917 9919 9921 9923 9926 9928 9931 9933 9934 9936 9938 9940 9943 9945 9947 9949 9951 9953 9956 9958 9960 9963 9966 9968 9970 9973 9976 9979 9982 9985 9988 9990
9953 9947 9941 9937 9932 9929 9925 9922 9919 9917 9915 9913 9911 9910 9909 9909 9909 9909 9910 9910 9911 9913 9914 9916 9918 9919 9921 9923 9925 9927 9930 9932 9934 9936 9939 9941 9943 9945 9947 9950 9952 9955 9957 9960 9963 9966 9969 9972 9975 9978 9981 9984 9987 9989
9948 9943 9938 9933 9929 9926 9922 9919 9917 9915 9913 9911 9909 9908 9907 9907 9907 9907 9907 9908 9909 9910 9911 9912 9914 9916 9918 9919 9921 9923 9925 9927 9930 9932 9934 9937 9939 9942 9944 9947 9950 9952 9955 9958 9960 9964 9967 9970 9974 9977 9981 9984 9987 9990
9945 9939 9934 9930 9926 9923 9920 9917 9915 9912 9910 9909 9908 9906 9905 9905 9904 9904 9905 9906 9907 9908 9909 9910 9911 9913 9914 9916 9918 9920 9922 9924 9926 9928 9931 9933 9936 9939 9941 9944 9947 9950 9952 9955 9959 9963 9966 9970 9973 9977 9980 9983 9987 9990
9942 9937 9932 9927 9923 9920 9918 9915 9913 9911 9908 9907 9906 9905 9904 9903 9902 9902 9902 9903 9904 9905 9907 9908 9909 9911 9912 9914 9916 9917 9919 9922 9924 9926 9929 9931 9934 9936 9939 9942 9945 9947 9951 9954 9958 9962 9966 9969 9973 9976 9980 9983 9987 9990
9939 9934 9929 9925 9921 9917 9915 9914 9912 9910 9907 9905 9904 9904 9903 9902 9901 9901 9901 9902 9903 9904 9905 9906 9908 9909 9911 9912 9914 9916 9918 9920 9922 9925 9928 9930 9933 9935 9938 9941 9943 9947 9950 9954 9958 9961 9965 9968 9972 9976 9979 9983 9986 9989
9936 9932 9928 9923 9920 9916 9914 9912 9910 9908 9906 9904 9903 9903 9902 9901 9901 9900 9901 9901 9902 9903 9904 9906 9907 9908 9910 9911 9913 9915 9917 9919 9921 9924 9926 9929 9931 9934 9937 9940 9943 9946 9950 9953 9957 9960 9964 9967 9971 9974 9978 9982 9985 9988